Location: Burkham Tank
(38.2944°N, 118.7629°W)
Time: 20:05:11
(UTC+00:00)

Daily predictions for brighter satellites

Satellite Brightness Start Highest point End
(mag) Time Altitude Azimuth Time Altitude Azimuth Time Altitude Azimuth
CZ-2C R/B 4.4 12:03:13 10° N 12:05:01 22° NNW 12:05:01 22° NNW
CZ-4B R/B 3.3 12:03:54 10° SE 12:06:43 30° ENE 12:09:36 10° N
Cosmos 2219 Rocket 3.7 12:02:27 10° SSE 12:07:32 35° ESE 12:12:38 10° NE
Cosmos 2173 Rocket 4.0 12:10:38 10° N 12:17:01 87° W 12:23:23 10° S
Cosmos 1937 Rocket 3.4 12:13:03 10° NNW 12:18:07 61° WSW 12:23:09 10° S
Cosmos 841 Rocket 3.6 12:17:14 28° SW 12:19:42 52° WNW 12:24:51 10° N
Cosmos 2208 Rocket 3.9 12:16:48 21° SSW 12:20:16 65° WNW 12:25:27 10° NNE
Cosmos 1814 Rocket 4.0 12:21:03 20° SW 12:24:36 60° WNW 12:29:49 10° N
COSMOS 2428 3.8 12:21:58 10° S 12:27:21 45° ESE 12:32:47 10° NE
USA 32 4.3 12:22:27 10° NNW 12:27:26 44° W 12:32:23 10° SSW
Meteor 2-20 4.4 12:21:22 10° S 12:27:30 80° W 12:33:38 10° N
ARIANE 5 R/B 4.5 12:26:21 10° NW 12:27:28 12° NW 12:27:28 12° NW
SAR-Lupe-4 4.4 12:26:01 10° SSE 12:29:29 53° ENE 12:33:00 10° N
Gbstr 26 Del rocket 4.5 12:22:49 10° WNW 12:30:33 54° SW 12:37:17 10° SSE
Cosmos 2333 Rocket 2.5 12:30:44 10° SSW 12:36:26 70° ESE 12:42:12 10° NNE
BREEZE M DEB (TANK) 3.3 12:27:08 10° WNW 12:37:03 52° SW 12:40:28 10° SSE
Cosmos 1484 Rocket 2.8 12:37:52 10° N 12:41:54 84° W 12:45:53 10° SSW
Cosmos 2322 3.6 12:36:16 10° SSW 12:41:55 81° WNW 12:47:37 10° NNE
USA 276 4.1 12:40:01 10° NNW 12:42:46 26° NNE 12:45:32 10° E
Cosmos 540 Rocket 4.2 12:40:01 19° WSW 12:42:54 32° WNW 12:47:32 10° N
METEOR-M 4.4 12:37:59 10° NNE 12:43:21 75° ESE 12:48:40 10° S
deb Chang Zheng 4 3.5 12:40:49 10° N 12:45:04 62° WNW 12:49:14 10° SSW
Cosmos 1515 3.6 12:42:13 10° S 12:45:59 88° ESE 12:49:48 10° N
Okean 1 3.3 12:42:29 10° SSW 12:46:30 67° W 12:50:32 10° N
SAR-Lupe-1 4.0 12:44:56 10° SSE 12:48:29 90° SW 12:52:05 10° NNW
Cosmos 2016 Rocket 3.9 12:42:29 10° N 12:48:35 74° W 12:54:38 10° S
Hubble Space Telescope 3.3 12:48:53 10° S 12:50:05 11° SSE 12:51:18 10° SE
ADEOS 3.6 12:45:52 10° N 12:50:59 59° WNW 12:56:06 10° SSW
Cosmos 1703 Rocket 3.6 12:46:52 10° S 12:51:11 82° E 12:55:32 10° N
Cosmos 2061 Rocket 4.0 12:46:03 10° NNW 12:52:27 71° W 12:58:49 10° S
SJ-12 4.5 12:48:58 10° NNE 12:53:04 62° E 12:57:10 10° S
Cosmos 1908 Rocket 3.6 12:48:57 10° N 12:53:27 86° E 12:57:55 10° S
Cosmos 1689 Rocket 2.9 12:51:07 10° SSE 12:54:00 53° ENE 12:56:55 10° N
Meteor 1-31 Rocket 2.7 12:50:42 10° N 12:54:32 73° WNW 12:58:22 10° SSW
Okean 1-7 3.1 12:50:38 10° S 12:54:52 81° E 12:59:08 10° N
Cosmos 1437 Rocket 3.2 12:52:27 10° SSW 12:55:59 38° WNW 12:59:36 10° N
Cosmos 2233 Rocket 4.4 12:52:31 10° N 12:58:39 70° E 13:04:45 10° SSE
Cosmos 2333 4.4 12:54:26 10° SW 13:00:07 56° WNW 13:05:48 10° NNE
Cosmos 2360 Rocket 3.2 12:58:36 11° WSW 13:03:12 28° WNW 13:08:03 10° N
Meteor 1-18 Rocket 4.2 12:57:52 10° SSW 13:03:22 68° W 13:08:56 10° N
Meteor 1-19 Rocket 4.1 12:58:12 10° SSW 13:03:39 74° W 13:09:17 10° N
Cosmos 1536 4.4 13:03:13 10° NW 13:05:36 15° W 13:07:59 10° WSW
FENGYUN 3A 3.8 13:00:44 10° N 13:06:01 56° WNW 13:11:16 10° SSW
Cosmos 1725 Rocket 4.0 13:04:41 10° NNW 13:10:44 59° W 13:16:46 10° S
CZ-4B R/B 2.5 13:07:17 10° N 13:10:53 82° WNW 13:14:27 10° SSW
Intercosmos 25 4.2 13:08:46 10° SW 13:12:08 25° W 13:14:56 10° NNW
CZ-4B R/B 4.5 13:10:49 10° N 13:15:00 44° WNW 13:19:14 10° SW
OAO 3 Rocket 4.5 13:11:09 10° SW 13:15:37 36° SSE 13:20:09 10° E
X-37B 2.2 13:13:52 10° W 13:16:19 20° SW 13:18:44 10° SSE
Cosmos 1733 Rocket 4.4 13:13:31 10° NW 13:16:23 18° W 13:19:15 10° SW
NOSS 3-4 (A) 4.3 13:10:30 10° NW 13:17:18 43° WSW 13:24:40 10° S
NOSS 3-4 (C) 4.3 13:10:35 10° NW 13:17:24 44° WSW 13:24:48 10° S
ADEOS Rocket 3.8 13:12:52 10° SSW 13:18:49 32° W 13:24:19 10° NW
Cosmos 2242 Rocket 4.2 13:16:20 10° SW 13:20:19 33° WNW 13:24:20 10° NNW
